Weather History for Ephrata, WA

Change the Weather History Date:

Thursday, October 24, 2013

  Actual Average Record
Temperature  
Mean Temperature 53 °F 47 °F  
Max Temperature 68 °F 58 °F 69 °F (1988)
Min Temperature 38 °F 36 °F 22 °F (2002)
Degree Days  
Heating Degree Days 12 18  
Month to date heating degree days 321 312  
Since 1 July heating degree days 429 439  
Cooling Degree Days 0 0  
Month to date cooling degree days 0 0  
Year to date cooling degree days 1084 769  
Growing Degree Days 4 (Base 50)    
Moisture  
Dew Point 40 °F    
Average Humidity 66    
Maximum Humidity 92    
Minimum Humidity 39    
Precipitation  
Precipitation 0.00 in 0.02 in 0.26 in (2010)
Month to date precipitation T 0.36  
Year to date precipitation 4.97 5.38  
Sea Level Pressure  
Sea Level Pressure 30.10 in    
Wind  
Wind Speed 5 mph (North)    
Max Wind Speed 10 mph    
Max Gust Speed 12 mph    
Visibility 10 miles    
Events      
T = Trace of Precipitation, MM = Missing Value Source: NWS Daily Summary

Daily Weather History Graph

Daily Weather History Graph

Search for Another Location

Airport:

Trip Planner

Search our weather history database for the weather conditions in past years. The results will help you decide how hot, cold, wet, or windy it might be!

Date:

Astronomy

Oct. 24, 2013 Rise Set
Actual Time 7:30 AM PDT 5:53 PM PDT
Civil Twilight 6:58 AM PDT 6:25 PM PDT
Nautical Twilight 6:22 AM PDT 7:00 PM PDT
Astronomical Twilight 5:47 AM PDT 7:36 PM PDT
Moon 10:14 PM PDT (10/24) 12:43 PM PDT (10/24)
Length of Visible Light 11h 26m
Length of Day
10h 23m
Waning Gibbous, 70% of the Moon is Illuminated
Oct 24
Waning Gibbous
Oct 26
Last Quarter
Nov 3
New
Nov 9
First Quarter
Nov 17
Full

Hourly Weather History & Observations

Time (PDT) Temp. Windchill Dew Point Humidity Pressure Visibility Wind Dir Wind Speed Gust Speed Precip Events Conditions
12:53 AM 48.9 °F - 39.0 °F 69% 30.09 in 10.0 mi NNW 5.8 mph - N/A   Clear
1:53 AM 51.1 °F - 39.9 °F 66% 30.10 in 10.0 mi NW 9.2 mph - N/A   Clear
2:53 AM 46.9 °F - 39.0 °F 74% 30.10 in 10.0 mi North 4.6 mph - N/A   Clear
3:53 AM 46.0 °F 44.8 °F 39.0 °F 76% 30.10 in 10.0 mi NNW 3.5 mph - N/A   Clear
4:53 AM 43.0 °F 39.5 °F 37.0 °F 80% 30.10 in 10.0 mi NNE 5.8 mph - N/A   Clear
5:53 AM 44.1 °F 40.1 °F 39.0 °F 82% 30.11 in 9.0 mi North 6.9 mph - N/A   Clear
6:53 AM 39.0 °F 35.7 °F 36.0 °F 89% 30.12 in 10.0 mi North 4.6 mph - N/A   Clear
7:53 AM 39.0 °F 34.0 °F 37.0 °F 93% 30.13 in 8.0 mi ENE 6.9 mph - N/A   Clear
8:53 AM 44.1 °F 42.5 °F 39.0 °F 82% 30.14 in 10.0 mi North 3.5 mph - N/A   Clear
9:53 AM 53.1 °F - 42.1 °F 66% 30.14 in 10.0 mi NNE 5.8 mph - N/A   Clear
10:53 AM 57.0 °F - 41.0 °F 55% 30.13 in 10.0 mi NE 4.6 mph - N/A   Clear
11:53 AM 59.0 °F - 42.1 °F 53% 30.13 in 10.0 mi NNE 4.6 mph - N/A   Clear
12:53 PM 63.0 °F - 42.1 °F 46% 30.10 in 10.0 mi Variable 5.8 mph - N/A   Clear
1:53 PM 64.9 °F - 42.1 °F 43% 30.08 in 10.0 mi NE 4.6 mph - N/A   Clear
2:53 PM 66.0 °F - 42.1 °F 42% 30.07 in 10.0 mi North 4.6 mph - N/A   Clear
3:53 PM 68.0 °F - 42.1 °F 39% 30.06 in 10.0 mi Calm Calm - N/A   Clear
4:53 PM 66.0 °F - 41.0 °F 40% 30.06 in 10.0 mi South 3.5 mph - N/A   Clear
5:53 PM 57.9 °F - 42.1 °F 56% 30.06 in 10.0 mi WSW 5.8 mph - N/A   Clear
6:53 PM 54.0 °F - 41.0 °F 62% 30.07 in 10.0 mi West 3.5 mph - N/A   Clear
7:53 PM 48.0 °F - 39.0 °F 71% 30.08 in 10.0 mi Calm Calm - N/A   Clear
8:53 PM 46.0 °F - 37.9 °F 73% 30.09 in 10.0 mi Calm Calm - N/A   Clear
9:53 PM 51.1 °F - 39.9 °F 66% 30.09 in 10.0 mi North 6.9 mph - N/A   Clear
10:53 PM 46.0 °F 42.5 °F 37.9 °F 73% 30.10 in 10.0 mi North 6.9 mph - N/A   Clear
11:53 PM 46.9 °F - 39.9 °F 77% 30.11 in 10.0 mi North 4.6 mph - N/A   Clear